Savannah Hunter, GA

1:48 PM EDT on May 21, 2018 (GMT -0400)
Hunter Army Air Field

Weather History for KSVN - April, 2014

Change the Weather History Date:

Thursday, April 10, 2014

  Actual Average Record
Temperature  
Mean Temperature 60 °F -  
Max Temperature 76 °F 74 °F 90 °F (2011)
Min Temperature 46 °F 54 °F 44 °F (2003)
Degree Days  
Heating Degree Days 4    
Growing Degree Days 10 (Base 50)    
Moisture  
Dew Point 44 °F    
Average Humidity 59    
Maximum Humidity 93    
Minimum Humidity 26    
Precipitation  
Precipitation 0.00 in - - ()
Sea Level Pressure  
Sea Level Pressure 30.23 in    
Wind  
Wind Speed 4 mph (SSW)    
Max Wind Speed 14 mph    
Max Gust Speed 16 mph    
Visibility 10 miles    
Events      
Averages and records for this station are not official NWS values.
T = Trace of Precipitation, MM = Missing Value Source: NWS Daily Summary

Daily Weather History Graph

Daily Weather History Graph

Search for Another Location

Airport or City:

Astronomy

Apr. 10, 2014 Rise Set
Actual Time 7:01 AM EDT 7:50 PM EDT
Civil Twilight 6:36 AM EDT 8:15 PM EDT
Nautical Twilight 6:07 AM EDT 8:44 PM EDT
Astronomical Twilight 5:37 AM EDT 9:14 PM EDT
Moon 3:47 PM EDT (4/10) 4:08 AM EDT (4/10)
Length of Visible Light 13h 38m
Length of Day
12h 48m
Waxing Gibbous, 79% of the Moon is Illuminated
Apr 10
Waxing Gibbous
Apr 15
Full
Apr 22
Last Quarter
Apr 29
New
May 6
First Quarter

Hourly Weather History & Observations

Time (EDT) Temp. Dew Point Humidity Pressure Visibility Wind Dir Wind Speed Gust Speed Precip Events Conditions
12:58 AM 51.1 °F 47.1 °F 86% 30.15 in 10.0 mi WSW 5.8 mph - N/A   Clear
1:58 AM 51.3 °F 46.6 °F 84% 30.16 in 10.0 mi Calm Calm - N/A   Clear
2:58 AM 50.9 °F 45.9 °F 83% 30.16 in 10.0 mi West 2.3 mph - N/A   Clear
3:58 AM 49.5 °F 46.2 °F 89% 30.17 in 10.0 mi West 3.5 mph - N/A   Clear
4:58 AM 47.7 °F 45.3 °F 92% 30.18 in 10.0 mi Calm Calm - N/A   Clear
5:58 AM 47.1 °F 45.0 °F 92% 30.20 in 10.0 mi West 1.2 mph - N/A   Clear
6:58 AM 46.2 °F 44.1 °F 92% 30.23 in 10.0 mi Calm Calm - N/A   Clear
7:58 AM 48.0 °F 46.2 °F 93% 30.26 in 10.0 mi West 3.5 mph - N/A   Clear
8:58 AM 57.6 °F 45.5 °F 64% 30.27 in 10.0 mi NW 3.5 mph - N/A   Clear
9:58 AM 64.4 °F 43.7 °F 47% 30.29 in 10.0 mi Variable 2.3 mph - N/A   Clear
10:58 AM 70.2 °F 39.6 °F 33% 30.30 in 10.0 mi Variable 4.6 mph - N/A   Clear
11:58 AM 72.9 °F 35.8 °F 26% 30.29 in 10.0 mi West 10.4 mph - N/A   Clear
12:58 PM 73.9 °F 37.2 °F 26% 30.28 in 10.0 mi SW 8.1 mph - N/A   Clear
1:58 PM 75.0 °F 37.8 °F 26% 30.26 in 10.0 mi Variable 5.8 mph - N/A   Clear
2:58 PM 75.9 °F 38.1 °F 26% 30.24 in 10.0 mi West 3.5 mph - N/A   Clear
3:58 PM 74.3 °F 43.7 °F 33% 30.22 in 10.0 mi SSE 12.7 mph - N/A   Clear
4:58 PM 73.4 °F 44.4 °F 35% 30.21 in 10.0 mi SE 13.8 mph - N/A   Clear
5:58 PM 71.8 °F 43.0 °F 35% 30.21 in 10.0 mi SSE 10.4 mph 16.1 mph N/A   Clear
6:58 PM 70.0 °F 41.4 °F 35% 30.22 in 10.0 mi South 8.1 mph - N/A   Clear
7:58 PM 66.6 °F 44.1 °F 44% 30.22 in 10.0 mi SSE 8.1 mph - N/A   Clear
8:58 PM 63.7 °F 48.2 °F 57% 30.25 in 10.0 mi SSE 4.6 mph - N/A   Clear
9:58 PM 62.6 °F 50.2 °F 64% 30.27 in 10.0 mi South 3.5 mph - N/A   Clear
10:58 PM 61.0 °F 50.7 °F 69% 30.28 in 10.0 mi SSE 4.6 mph - N/A   Clear
11:58 PM 60.8 °F 53.2 °F 76% 30.27 in 10.0 mi SSE 5.8 mph - N/A   Clear